Flag for Iran Weather past 2 weeks in Esfahãn, Iran

Now
70 °F

Sandstorm.


Feels Like: 70 °F
Forecast: 44 / 64 °F
Wind: 22 mph from West

Location: Esfahan

Current Time: Jan 29, 2015 at 3:59:27 PM

Latest Report: Jan 29, 2015 at 3:30 PM


Visibility: 3 mi

Pressure: 29.95 "Hg

Humidity: 12%

Dew point: 14 °F

Location of EsfahãnLocation

Historic Weather in Esfahãn — Graph

°F

Esfahãn temperature yesterday

Maximum temperature yesterday: 57 °F (at 4:00 PM)
Minimum temperature yesterday: 25 °F (at 7:00 AM)
Average temperature yesterday: 42 °F

Past Weeks' High & Low Weather Summary

 TemperatureHumidityPressure
High70 °F (Jan 29, 2:00 PM)93% (Jan 18, 6:30 AM)30.33 "Hg (Jan 18, 6:30 AM)
Low10 °F (Jan 21, 6:00 AM)12% (Jan 29, 2:00 PM)29.95 "Hg (Jan 29, 4:30 AM)
Average38 °F45%30.14 "Hg
* Reported Jan 14 3:00 PM — Jan 29 3:00 PM, Esfahãn, Weather by CustomWeather, © 2014

Note: Actual official high and low records may vary slightly from our data, if they occured in-between our weather recording intervals... More about our weather records

Advertising

Esfahãn weather history for previous 24 hours

 ConditionsComfort  
Time TempWeatherWind HumidityBarometerVisibility
3:00 PM
Jan 29
70 °FPassing clouds.22 mph12%29.95 "Hg4 mi
2:30 PM70 °FScattered clouds.22 mph12%29.95 "Hg4 mi
2:00 PM70 °FScattered clouds.22 mph12%29.95 "Hg4 mi
1:30 PM66 °FPassing clouds.16 mph15%29.98 "Hg4 mi
1:00 PM64 °FClear.12 mph16%29.98 "Hg4 mi
12:30 PM61 °FClear.5 mph19%30.01 "Hg4 mi
12:00 PM61 °FClear.9 mph17%30.04 "Hg4 mi
11:30 AM59 °FClear.9 mph23%30.04 "Hg4 mi
11:00 AM55 °FHaze.9 mph33%30.07 "Hg3 mi
10:30 AM50 °FHaze.9 mph37%30.07 "Hg2 mi
10:00 AM46 °FHaze.9 mph43%30.07 "Hg2 mi
9:30 AM45 °FHaze.9 mph46%30.07 "Hg2 mi
9:00 AM41 °FHaze.9 mph49%30.07 "Hg2 mi
8:30 AM37 °FHaze.5 mph52%30.07 "Hg3 mi
8:00 AM34 °FHaze.5 mph60%30.04 "Hg3 mi
7:30 AM28 °FHaze.5 mph64%30.04 "Hg1 mi
7:00 AM30 °FHaze.5 mph69%30.01 "Hg1 mi
6:30 AM32 °FClear.No wind64%30.01 "Hg3 mi
6:00 AM30 °FClear.5 mph59%29.98 "Hg3 mi
5:30 AM30 °FClear.No wind59%29.98 "Hg3 mi
5:00 AM30 °FClear.No wind64%29.95 "Hg3 mi
4:30 AM32 °FClear.No wind55%29.95 "Hg3 mi
4:00 AM34 °FHaze.No wind60%29.98 "Hg3 mi
3:30 AM32 °FHaze.No wind60%29.98 "Hg3 mi
3:00 AM34 °FHaze.7 mph56%29.98 "Hg3 mi
2:30 AM36 °FHaze.No wind52%29.98 "Hg3 mi
2:00 AM41 °FHaze.No wind49%29.98 "Hg2 mi
1:30 AM41 °FHaze.No wind49%29.98 "Hg2 mi
1:00 AM41 °FHaze.No wind49%30.01 "Hg2 mi
12:30 AM39 °FHaze.No wind48%30.01 "Hg2 mi
12:00 AM39 °FHaze.No wind48%30.01 "Hg3 mi
11:30 PM
Jan 28
39 °FHaze.5 mph52%30.01 "Hg3 mi
11:00 PM41 °FHaze.No wind49%30.01 "Hg3 mi
10:30 PM37 °FHaze.7 mph52%30.04 "Hg3 mi
10:00 PM39 °FHaze.7 mph52%30.04 "Hg3 mi
9:30 PM41 °FHaze.7 mph49%30.04 "Hg3 mi
9:00 PM41 °FHaze.No wind49%30.04 "Hg3 mi
8:30 PM43 °FHaze.No wind49%30.07 "Hg3 mi
8:00 PM43 °FHaze.7 mph46%30.07 "Hg3 mi
7:30 PM45 °FHaze.No wind46%30.07 "Hg3 mi
7:00 PM45 °FHaze.5 mph42%30.07 "Hg3 mi
6:30 PM45 °FHaze.7 mph39%30.07 "Hg3 mi
6:00 PM50 °FHaze.5 mph37%30.04 "Hg3 mi
5:30 PM52 °FHaze.No wind35%30.04 "Hg3 mi
5:00 PM55 °FMore clouds than sun.No wind31%30.04 "Hg4 mi
4:30 PM55 °FMostly cloudy.No wind33%30.04 "Hg3 mi
4:00 PM57 °FMostly cloudy.5 mph31%30.04 "Hg4 mi
3:30 PM55 °FMostly cloudy.No wind33%30.04 "Hg3 mi
3:00 PM55 °FMostly cloudy.7 mph33%30.04 "Hg2 mi
Weather by CustomWeather, © 2014

See weather overviewHow to use our weather pages